| time (UTC) | temp F | wind direction | speed knots | gust knots | rain 1hr in | rain 24hr in | rain mn in | humidity % | barometer mb |
| 20260904073854 | 67 | 238 | 2.6 | 3.5 | 0.00 | 0.00 | 0.00 | 69 | 1009.8 |
| 20260904073349 | 67 | 243 | 3.5 | 4.3 | 0.00 | 0.00 | 0.00 | 69 | 1009.8 |
| 20260904072844 | 67 | 296 | 2.6 | 3.5 | 0.00 | 0.00 | 0.00 | 69 | 1009.8 |
| 20260904072339 | 67 | 230 | 0.9 | 1.7 | 0.00 | 0.00 | 0.00 | 69 | 1009.8 |
| 20260904071834 | 68 | 262 | 1.7 | 1.7 | 0.00 | 0.00 | 0.00 | 68 | 1009.8 |
| 20260904071330 | 68 | 259 | 2.6 | 4.3 | 0.00 | 0.00 | 0.00 | 68 | 1009.8 |
| 20260904070825 | 68 | 243 | 2.6 | 3.5 | 0.00 | 0.00 | 0.00 | 68 | 1009.7 |
| 20260904070323 | 68 | 258 | 1.7 | 1.7 | 0.00 | 0.00 | 0.00 | 67 | 1009.9 |
| 20260904065818 | 68 | 250 | 2.6 | 3.5 | 0.00 | 0.00 | 0.00 | 67 | 1009.8 |
| 20260904065314 | 68 | 341 | 2.6 | 3.5 | 0.00 | 0.00 | 0.00 | 67 | 1010.0 |
| 20260904064809 | 68 | 280 | 2.6 | 3.5 | 0.00 | 0.00 | 0.00 | 66 | 1009.9 |
| 20260904064305 | 68 | 235 | 0.9 | 1.7 | 0.00 | 0.00 | 0.00 | 65 | 1009.8 |
| 20260904063801 | 68 | 243 | 2.6 | 3.5 | 0.00 | 0.00 | 0.00 | 65 | 1009.9 |
| 20260904063256 | 68 | 271 | 2.6 | 3.5 | 0.00 | 0.00 | 0.00 | 64 | 1009.7 |
| 20260904062752 | 68 | 249 | 2.6 | 3.5 | 0.00 | 0.00 | 0.00 | 64 | 1010.0 |
| 20260904062248 | 69 | 242 | 1.7 | 1.7 | 0.00 | 0.00 | 0.00 | 63 | 1009.7 |
| 20260904061743 | 69 | 245 | 3.5 | 4.3 | 0.00 | 0.00 | 0.00 | 63 | 1009.7 |
| 20260904061239 | 69 | 229 | 1.7 | 1.7 | 0.00 | 0.00 | 0.00 | 63 | 1009.7 |
| 20260904060736 | 69 | 263 | 1.7 | 1.7 | 0.00 | 0.00 | 0.00 | 62 | 1009.5 |
| 20260904060231 | 69 | 262 | 2.6 | 3.5 | 0.00 | 0.00 | 0.00 | 61 | 1009.4 |
| 20260904055726 | 69 | 295 | 2.6 | 3.5 | 0.00 | 0.00 | 0.00 | 61 | 1009.5 |
| 20260904055221 | 69 | 278 | 2.6 | 3.5 | 0.00 | 0.00 | 0.00 | 60 | 1009.4 |
| 20260904054717 | 69 | 262 | 0.9 | 0.9 | 0.00 | 0.00 | 0.00 | 60 | 1009.5 |
| 20260904054213 | 69 | 283 | 2.6 | 3.5 | 0.00 | 0.00 | 0.00 | 60 | 1009.4 |
| 20260904053708 | 70 | 27 | 0.0 | 0.0 | 0.00 | 0.00 | 0.00 | 58 | 1009.6 |
| 20260904053207 | 70 | 255 | 2.6 | 3.5 | 0.00 | 0.00 | 0.00 | 58 | 1009.4 |
| 20260904052704 | 70 | 244 | 2.6 | 3.5 | 0.00 | 0.00 | 0.00 | 57 | 1009.5 |
| 20260904052200 | 70 | 247 | 1.7 | 1.7 | 0.00 | 0.00 | 0.00 | 56 | 1009.6 |
| 20260904051656 | 70 | 247 | 1.7 | 1.7 | 0.00 | 0.00 | 0.00 | 55 | 1009.6 |
| 20260904051150 | 71 | 256 | 3.5 | 5.2 | 0.00 | 0.00 | 0.00 | 55 | 1009.6 |
| 20260904050646 | 71 | 258 | 3.5 | 4.3 | 0.00 | 0.00 | 0.00 | 54 | 1009.6 |
| 20260904050137 | 71 | 207 | 2.6 | 3.5 | 0.00 | 0.00 | 0.00 | 53 | 1009.5 |
| 20260904045636 | 72 | 296 | 5.2 | 6.1 | 0.00 | 0.00 | 0.00 | 52 | 1009.8 |
| 20260904045131 | 72 | 263 | 3.5 | 4.3 | 0.00 | 0.00 | 0.00 | 50 | 1009.7 |
| 20260904044626 | 72 | 262 | 4.3 | 6.1 | 0.00 | 0.00 | 0.00 | 50 | 1009.5 |
| 20260904044123 | 72 | 235 | 4.3 | 6.1 | 0.00 | 0.00 | 0.00 | 48 | 1009.4 |
| 20260904043619 | 73 | 253 | 5.2 | 7.0 | 0.00 | 0.00 | 0.00 | 48 | 1009.4 |
| 20260904043115 | 73 | 264 | 1.7 | 1.7 | 0.00 | 0.00 | 0.00 | 47 | 1009.3 |
| 20260904042611 | 73 | 234 | 2.6 | 3.5 | 0.00 | 0.00 | 0.00 | 46 | 1009.4 |
| 20260904042106 | 74 | 261 | 3.5 | 4.3 | 0.00 | 0.00 | 0.00 | 45 | 1009.2 |
| 20260904041601 | 74 | 250 | 1.7 | 1.7 | 0.00 | 0.00 | 0.00 | 43 | 1009.3 |
| 20260904041057 | 74 | 298 | 3.5 | 4.3 | 0.00 | 0.00 | 0.00 | 41 | 1009.2 |
| 20260904040557 | 74 | 276 | 1.7 | 1.7 | 0.00 | 0.00 | 0.00 | 43 | 1009.1 |
| 20260904040054 | 74 | 293 | 4.3 | 5.2 | 0.00 | 0.00 | 0.00 | 44 | 1009.0 |
| 20260904035549 | 74 | 241 | 2.6 | 3.5 | 0.00 | 0.00 | 0.00 | 48 | 1008.9 |
| 20260904035049 | 75 | 259 | 1.7 | 1.7 | 0.00 | 0.00 | 0.00 | 47 | 1009.1 |
| 20260904034543 | 75 | 242 | 0.9 | 0.9 | 0.00 | 0.00 | 0.00 | 47 | 1008.8 |
| 20260904034039 | 75 | 258 | 0.0 | 0.0 | 0.00 | 0.00 | 0.00 | 47 | 1009.0 |
| 20260904033535 | 75 | 264 | 0.9 | 1.7 | 0.00 | 0.00 | 0.00 | 47 | 1009.1 |
| 20260904033032 | 75 | 262 | 0.9 | 0.9 | 0.00 | 0.00 | 0.00 | 47 | 1008.7 |
| 20260904032528 | 76 | 271 | 0.0 | 0.0 | 0.00 | 0.00 | 0.00 | 47 | 1008.6 |
| 20260904032026 | 76 | 292 | 0.0 | 0.9 | 0.00 | 0.00 | 0.00 | 46 | 1008.4 |
| 20260904031521 | 76 | 307 | 0.0 | 0.0 | 0.00 | 0.00 | 0.00 | 45 | 1008.5 |
| 20260904031017 | 76 | 269 | 0.9 | 0.9 | 0.00 | 0.00 | 0.00 | 46 | 1008.5 |
| 20260904030513 | 76 | 313 | 0.0 | 0.0 | 0.00 | 0.00 | 0.00 | 47 | 1008.5 |
| 20260904030008 | 76 | 345 | 0.0 | 0.0 | 0.00 | 0.00 | 0.00 | 46 | 1008.5 |
| 20260904025504 | 77 | 294 | 0.0 | 0.0 | 0.00 | 0.00 | 0.00 | 45 | 1008.4 |
| 20260904025004 | 77 | 294 | 0.0 | 0.0 | 0.00 | 0.00 | 0.00 | 44 | 1008.4 |
| 20260904024459 | 78 | 294 | 0.0 | 0.0 | 0.00 | 0.00 | 0.00 | 45 | 1008.7 |
| 20260904023955 | 78 | 292 | 0.9 | 0.9 | 0.00 | 0.00 | 0.00 | 44 | 1008.8 |
| 20260904023451 | 79 | 273 | 1.7 | 1.7 | 0.00 | 0.00 | 0.00 | 44 | 1008.5 |
| 20260904022950 | 79 | 269 | 0.9 | 1.7 | 0.00 | 0.00 | 0.00 | 41 | 1008.7 |
| 20260904022446 | 79 | 355 | 0.0 | 0.9 | 0.00 | 0.00 | 0.00 | 42 | 1008.4 |
| 20260904021943 | 80 | 69 | 0.0 | 0.0 | 0.00 | 0.00 | 0.00 | 41 | 1008.6 |
| 20260904021439 | 81 | 69 | 0.0 | 0.0 | 0.00 | 0.00 | 0.00 | 40 | 1008.6 |
| 20260904020939 | 82 | 69 | 0.0 | 0.0 | 0.00 | 0.00 | 0.00 | 38 | 1008.7 |
| 20260904020434 | 82 | 354 | 0.0 | 0.0 | 0.00 | 0.00 | 0.00 | 37 | 1008.9 |
| 20260904015932 | 82 | 354 | 0.0 | 0.9 | 0.00 | 0.00 | 0.00 | 33 | 1008.9 |
| 20260904015428 | 83 | 60 | 0.0 | 0.0 | 0.00 | 0.00 | 0.00 | 36 | 1009.0 |
| 20260904014926 | 83 | 321 | 0.0 | 0.0 | 0.00 | 0.00 | 0.00 | 35 | 1008.8 |
| 20260904014422 | 84 | 132 | 0.9 | 0.9 | 0.00 | 0.00 | 0.00 | 31 | 1008.8 |
| 20260904013917 | 84 | 15 | 0.9 | 0.9 | 0.00 | 0.00 | 0.00 | 31 | 1009.0 |
| 20260904013413 | 85 | 280 | 0.0 | 0.0 | 0.00 | 0.00 | 0.00 | 31 | 1008.9 |
| 20260904012909 | 85 | 12 | 0.9 | 0.9 | 0.00 | 0.00 | 0.00 | 31 | 1009.0 |
| 20260904012409 | 86 | 24 | 0.0 | 0.0 | 0.00 | 0.00 | 0.00 | 29 | 1009.0 |
| 20260904011903 | 85 | 31 | 0.0 | 0.0 | 0.00 | 0.00 | 0.00 | 29 | 1008.7 |
| 20260904011358 | 86 | 19 | 0.0 | 0.0 | 0.00 | 0.00 | 0.00 | 29 | 1008.9 |
| 20260904010853 | 86 | 37 | 0.0 | 0.0 | 0.00 | 0.00 | 0.00 | 29 | 1009.0 |
| 20260904010350 | 86 | 55 | 0.0 | 0.9 | 0.00 | 0.00 | 0.00 | 29 | 1008.8 |
| 20260904005844 | 87 | 58 | 0.0 | 0.0 | 0.00 | 0.00 | 0.00 | 27 | 1009.0 |
| 20260904005340 | 86 | 81 | 0.0 | 0.9 | 0.00 | 0.00 | 0.00 | 28 | 1009.0 |
| 20260904004835 | 86 | 239 | 0.0 | 0.9 | 0.00 | 0.00 | 0.00 | 29 | 1009.0 |
| 20260904004332 | 87 | 339 | 0.9 | 0.9 | 0.00 | 0.00 | 0.00 | 28 | 1009.1 |
| 20260904003832 | 86 | 250 | 0.9 | 1.7 | 0.00 | 0.00 | 0.00 | 28 | 1009.1 |
| 20260904003328 | 86 | 291 | 1.7 | 1.7 | 0.00 | 0.00 | 0.00 | 28 | 1009.1 |
| 20260904002823 | 85 | 283 | 0.0 | 0.9 | 0.00 | 0.00 | 0.00 | 29 | 1009.2 |
| 20260904002319 | 86 | 275 | 2.6 | 3.5 | 0.00 | 0.00 | 0.00 | 29 | 1009.1 |
| 20260904001818 | 86 | 39 | 0.9 | 1.7 | 0.00 | 0.00 | 0.00 | 29 | 1009.2 |
| 20260904001313 | 86 | 259 | 3.5 | 4.3 | 0.00 | 0.00 | 0.00 | 30 | 1009.1 |
| 20260904000808 | 86 | 247 | 3.5 | 4.3 | 0.00 | 0.00 | 0.00 | 28 | 1009.1 |
| 20260904000307 | 86 | 276 | 0.9 | 0.9 | 0.00 | 0.00 | 0.00 | 28 | 1009.2 |
| 20260903235802 | 86 | 258 | 1.7 | 1.7 | 0.00 | 0.00 | 0.00 | 29 | 1009.3 |
| 20260903235259 | 87 | 273 | 3.5 | 4.3 | 0.00 | 0.00 | 0.00 | 29 | 1009.5 |
| 20260903234757 | 86 | 24 | 0.0 | 0.9 | 0.00 | 0.00 | 0.00 | 30 | 1009.5 |
| 20260903234254 | 86 | 22 | 0.9 | 0.9 | 0.00 | 0.00 | 0.00 | 30 | 1009.5 |
| 20260903233750 | 87 | 64 | 1.7 | 1.7 | 0.00 | 0.00 | 0.00 | 28 | 1009.7 |
| 20260903233246 | 87 | 9 | 0.9 | 0.9 | 0.00 | 0.00 | 0.00 | 29 | 1009.5 |
| 20260903232744 | 86 | 257 | 1.7 | 1.7 | 0.00 | 0.00 | 0.00 | 29 | 1009.7 |
| 20260903232241 | 87 | 274 | 2.6 | 3.5 | 0.00 | 0.00 | 0.00 | 29 | 1009.7 |
| 20260903231739 | 85 | 58 | 0.0 | 0.0 | 0.00 | 0.00 | 0.00 | 29 | 1009.7 |
| 20260903231235 | 85 | 314 | 1.7 | 3.5 | 0.00 | 0.00 | 0.00 | 30 | 1010.0 |
| 20260903230730 | 86 | 0 | 0.9 | 0.9 | 0.00 | 0.00 | 0.00 | 29 | 1009.8 |
| 20260903230225 | 87 | 254 | 1.7 | 1.7 | 0.00 | 0.00 | 0.00 | 29 | 1010.0 |
| 20260903225722 | 87 | 228 | 0.9 | 1.7 | 0.00 | 0.00 | 0.00 | 30 | 1010.0 |
| 20260903225218 | 86 | 310 | 0.9 | 0.9 | 0.00 | 0.00 | 0.00 | 29 | 1010.1 |
| 20260903224714 | 86 | 245 | 2.6 | 3.5 | 0.00 | 0.00 | 0.00 | 29 | 1010.2 |
| 20260903224210 | 85 | 264 | 1.7 | 1.7 | 0.00 | 0.00 | 0.00 | 30 | 1010.1 |
| 20260903223704 | 86 | 293 | 2.6 | 3.5 | 0.00 | 0.00 | 0.00 | 31 | 1010.5 |
| 20260903223203 | 87 | 313 | 1.7 | 1.7 | 0.00 | 0.00 | 0.00 | 29 | 1010.2 |
| 20260903222703 | 87 | 330 | 0.9 | 1.7 | 0.00 | 0.00 | 0.00 | 29 | 1010.4 |
| 20260903222202 | 85 | 322 | 0.0 | 0.9 | 0.00 | 0.00 | 0.00 | 31 | 1010.5 |
| 20260903221657 | 85 | 262 | 2.6 | 3.5 | 0.00 | 0.00 | 0.00 | 31 | 1010.6 |
| 20260903221156 | 85 | 80 | 0.9 | 0.9 | 0.00 | 0.00 | 0.00 | 30 | 1010.8 |
| 20260903220655 | 84 | 156 | 0.9 | 0.9 | 0.00 | 0.00 | 0.00 | 32 | 1010.5 |
| 20260903220149 | 84 | 264 | 3.5 | 4.3 | 0.00 | 0.00 | 0.00 | 30 | 1011.1 |
| 20260903215648 | 83 | 211 | 3.5 | 4.3 | 0.00 | 0.00 | 0.00 | 32 | 1011.1 |
| 20260903215144 | 84 | 277 | 3.5 | 5.2 | 0.00 | 0.00 | 0.00 | 31 | 1011.1 |
| 20260903214642 | 84 | 251 | 1.7 | 1.7 | 0.00 | 0.00 | 0.00 | 32 | 1011.0 |
| 20260903214138 | 84 | 241 | 2.6 | 4.3 | 0.00 | 0.00 | 0.00 | 31 | 1011.2 |
| 20260903213632 | 84 | 288 | 3.5 | 4.3 | 0.00 | 0.00 | 0.00 | 32 | 1011.4 |
| 20260903213129 | 85 | 60 | 1.7 | 1.7 | 0.00 | 0.00 | 0.00 | 30 | 1011.1 |
| 20260903212624 | 85 | 89 | 0.9 | 0.9 | 0.00 | 0.00 | 0.00 | 30 | 1011.4 |
| 20260903212119 | 83 | 318 | 0.9 | 1.7 | 0.00 | 0.00 | 0.00 | 32 | 1011.2 |
| 20260903211609 | 83 | 228 | 2.6 | 4.3 | 0.00 | 0.00 | 0.00 | 33 | 1011.1 |
| 20260903211106 | 84 | 79 | 0.9 | 1.7 | 0.00 | 0.00 | 0.00 | 33 | 1011.4 |
| 20260903210601 | 83 | 30 | 1.7 | 1.7 | 0.00 | 0.00 | 0.00 | 35 | 1011.5 |
| 20260903210056 | 82 | 84 | 0.0 | 0.9 | 0.00 | 0.00 | 0.00 | 34 | 1011.6 |
| 20260903205555 | 83 | 29 | 2.6 | 3.5 | 0.00 | 0.00 | 0.00 | 33 | 1011.6 |
| 20260903205050 | 83 | 12 | 0.9 | 1.7 | 0.00 | 0.00 | 0.00 | 33 | 1011.6 |
| 20260903204546 | 81 | 331 | 0.9 | 1.7 | 0.00 | 0.00 | 0.00 | 36 | 1011.8 |
| 20260903204041 | 81 | 91 | 0.9 | 0.9 | 0.00 | 0.00 | 0.00 | 34 | 1011.9 |
| 20260903203537 | 80 | 265 | 1.7 | 1.7 | 0.00 | 0.00 | 0.00 | 36 | 1011.7 |
| 20260903203036 | 80 | 221 | 1.7 | 3.5 | 0.00 | 0.00 | 0.00 | 36 | 1012.0 |
| 20260903202532 | 80 | 293 | 6.1 | 7.8 | 0.00 | 0.00 | 0.00 | 38 | 1011.7 |
| 20260903202027 | 81 | 259 | 3.5 | 4.3 | 0.00 | 0.00 | 0.00 | 36 | 1012.1 |
| 20260903201522 | 82 | 306 | 0.9 | 0.9 | 0.00 | 0.00 | 0.00 | 36 | 1011.9 |
| 20260903201021 | 81 | 217 | 0.9 | 0.9 | 0.00 | 0.00 | 0.00 | 38 | 1011.9 |
| 20260903200516 | 81 | 25 | 2.6 | 3.5 | 0.00 | 0.00 | 0.00 | 36 | 1012.0 |
| 20260903200011 | 81 | 43 | 0.0 | 0.9 | 0.00 | 0.00 | 0.00 | 36 | 1012.3 |
| 20260903195507 | 80 | 16 | 0.9 | 1.7 | 0.00 | 0.00 | 0.00 | 37 | 1012.3 |
| 20260903195003 | 79 | 9 | 0.9 | 1.7 | 0.00 | 0.00 | 0.00 | 38 | 1012.5 |
| 20260903194457 | 79 | 286 | 0.0 | 0.9 | 0.00 | 0.00 | 0.00 | 38 | 1012.7 |
| 20260903193953 | 78 | 260 | 2.6 | 3.5 | 0.00 | 0.00 | 0.00 | 39 | 1012.8 |
| 20260903193449 | 79 | 231 | 2.6 | 3.5 | 0.00 | 0.00 | 0.00 | 39 | 1012.8 |
| 20260903192943 | 78 | 351 | 0.9 | 0.9 | 0.00 | 0.00 | 0.00 | 38 | 1012.7 |
| 20260903192441 | 78 | 245 | 2.6 | 3.5 | 0.00 | 0.00 | 0.00 | 40 | 1012.8 |
| 20260903191935 | 78 | 237 | 0.9 | 1.7 | 0.00 | 0.00 | 0.00 | 39 | 1012.8 |
| 20260903191432 | 77 | 32 | 1.7 | 1.7 | 0.00 | 0.00 | 0.00 | 39 | 1012.6 |
| 20260903190931 | 78 | 290 | 0.9 | 0.9 | 0.00 | 0.00 | 0.00 | 40 | 1012.7 |
| 20260903190431 | 76 | 269 | 2.6 | 4.3 | 0.00 | 0.00 | 0.00 | 42 | 1012.9 |
| 20260903185925 | 78 | 273 | 1.7 | 1.7 | 0.00 | 0.00 | 0.00 | 40 | 1013.1 |
| 20260903185421 | 78 | 65 | 0.0 | 0.9 | 0.00 | 0.00 | 0.00 | 40 | 1013.3 |
| 20260903184916 | 77 | 172 | 1.7 | 3.5 | 0.00 | 0.00 | 0.00 | 40 | 1013.3 |
| 20260903184413 | 76 | 81 | 0.9 | 0.9 | 0.00 | 0.00 | 0.00 | 40 | 1013.4 |
| 20260903183912 | 77 | 135 | 0.9 | 0.9 | 0.00 | 0.00 | 0.00 | 42 | 1013.6 |
| 20260903183407 | 75 | 14 | 1.7 | 1.7 | 0.00 | 0.00 | 0.00 | 43 | 1013.6 |
| 20260903182907 | 75 | 258 | 2.6 | 3.5 | 0.00 | 0.00 | 0.00 | 41 | 1013.8 |
| 20260903182405 | 75 | 43 | 0.9 | 0.9 | 0.00 | 0.00 | 0.00 | 42 | 1013.9 |
| 20260903181900 | 75 | 249 | 1.7 | 1.7 | 0.00 | 0.00 | 0.00 | 42 | 1013.8 |
| 20260903181355 | 75 | 290 | 3.5 | 4.3 | 0.00 | 0.00 | 0.00 | 42 | 1013.9 |
| 20260903180855 | 75 | 243 | 2.6 | 3.5 | 0.00 | 0.00 | 0.00 | 44 | 1013.7 |
| 20260903180349 | 74 | 311 | 2.6 | 3.5 | 0.00 | 0.00 | 0.00 | 44 | 1013.8 |
| 20260903175849 | 73 | 243 | 1.7 | 1.7 | 0.00 | 0.00 | 0.00 | 45 | 1013.7 |
| 20260903175343 | 73 | 264 | 1.7 | 1.7 | 0.00 | 0.00 | 0.00 | 46 | 1013.9 |
| 20260903174837 | 73 | 275 | 1.7 | 1.7 | 0.00 | 0.00 | 0.00 | 46 | 1013.7 |
| 20260903174332 | 73 | 231 | 0.9 | 0.9 | 0.00 | 0.00 | 0.00 | 47 | 1013.7 |
| 20260903173827 | 72 | 243 | 1.7 | 3.5 | 0.00 | 0.00 | 0.00 | 47 | 1013.8 |
| 20260903173322 | 73 | 274 | 1.7 | 1.7 | 0.00 | 0.00 | 0.00 | 45 | 1013.9 |
| 20260903172818 | 72 | 238 | 0.9 | 1.7 | 0.00 | 0.00 | 0.00 | 47 | 1013.8 |
| 20260903172313 | 72 | 249 | 3.5 | 4.3 | 0.00 | 0.00 | 0.00 | 47 | 1014.0 |
| 20260903171808 | 71 | 276 | 1.7 | 1.7 | 0.00 | 0.00 | 0.00 | 49 | 1013.8 |
| 20260903171304 | 71 | 297 | 4.3 | 4.3 | 0.00 | 0.00 | 0.00 | 49 | 1014.0 |
| 20260903170803 | 71 | 262 | 2.6 | 3.5 | 0.00 | 0.00 | 0.00 | 49 | 1014.0 |
| 20260903170258 | 70 | 30 | 0.0 | 0.9 | 0.00 | 0.00 | 0.00 | 50 | 1014.0 |
| 20260903165756 | 70 | 248 | 3.5 | 4.3 | 0.00 | 0.00 | 0.00 | 52 | 1014.0 |
| 20260903165251 | 69 | 38 | 0.0 | 0.9 | 0.00 | 0.00 | 0.00 | 52 | 1014.0 |
| 20260903164745 | 69 | 251 | 2.6 | 3.5 | 0.00 | 0.00 | 0.00 | 53 | 1014.3 |
| 20260903164241 | 69 | 219 | 0.9 | 0.9 | 0.00 | 0.00 | 0.00 | 55 | 1014.2 |
| 20260903163740 | 68 | 212 | 0.9 | 0.9 | 0.00 | 0.00 | 0.00 | 55 | 1014.3 |
| 20260903163237 | 68 | 281 | 2.6 | 3.5 | 0.00 | 0.00 | 0.00 | 56 | 1014.2 |
| 20260903162733 | 67 | 239 | 2.6 | 4.3 | 0.00 | 0.00 | 0.00 | 56 | 1014.3 |
| 20260903162229 | 67 | 161 | 0.9 | 0.9 | 0.00 | 0.00 | 0.00 | 56 | 1014.4 |
| 20260903161724 | 66 | 293 | 0.9 | 1.7 | 0.00 | 0.00 | 0.00 | 59 | 1014.2 |
| 20260903161220 | 66 | 264 | 1.7 | 1.7 | 0.00 | 0.00 | 0.00 | 59 | 1014.3 |
| 20260903160715 | 66 | 241 | 4.3 | 5.2 | 0.00 | 0.00 | 0.00 | 58 | 1014.4 |
| 20260903160214 | 66 | 14 | 0.0 | 0.9 | 0.00 | 0.00 | 0.00 | 61 | 1014.3 |
| 20260903155713 | 65 | 275 | 2.6 | 3.5 | 0.00 | 0.00 | 0.00 | 61 | 1014.1 |
| 20260903155208 | 65 | 192 | 1.7 | 1.7 | 0.00 | 0.00 | 0.00 | 62 | 1014.3 |
| 20260903154704 | 64 | 275 | 1.7 | 1.7 | 0.00 | 0.00 | 0.00 | 63 | 1014.1 |
| 20260903154200 | 64 | 231 | 0.9 | 0.9 | 0.00 | 0.00 | 0.00 | 63 | 1014.4 |
| 20260903153655 | 63 | 276 | 1.7 | 1.7 | 0.00 | 0.00 | 0.00 | 65 | 1014.2 |
| 20260903153151 | 63 | 252 | 2.6 | 3.5 | 0.00 | 0.00 | 0.00 | 66 | 1014.3 |
| 20260903152647 | 63 | 251 | 1.7 | 1.7 | 0.00 | 0.00 | 0.00 | 66 | 1014.3 |
| 20260903152143 | 62 | 269 | 1.7 | 1.7 | 0.00 | 0.00 | 0.00 | 67 | 1014.4 |
| 20260903151643 | 62 | 269 | 0.9 | 0.9 | 0.00 | 0.00 | 0.00 | 69 | 1014.2 |
| 20260903151142 | 61 | 349 | 0.9 | 0.9 | 0.00 | 0.00 | 0.00 | 69 | 1014.5 |
| 20260903150637 | 61 | 105 | 0.0 | 0.0 | 0.00 | 0.00 | 0.00 | 71 | 1014.5 |
| 20260903150133 | 61 | 248 | 4.3 | 5.2 | 0.00 | 0.00 | 0.00 | 71 | 1014.5 |
| 20260903145632 | 60 | 265 | 1.7 | 1.7 | 0.00 | 0.00 | 0.00 | 73 | 1014.1 |
| 20260903145127 | 60 | 187 | 0.0 | 0.0 | 0.00 | 0.00 | 0.00 | 73 | 1014.3 |
| 20260903144625 | 59 | 260 | 1.7 | 1.7 | 0.00 | 0.00 | 0.00 | 74 | 1014.2 |
| 20260903144122 | 59 | 244 | 3.5 | 5.2 | 0.00 | 0.00 | 0.00 | 74 | 1014.2 |
| 20260903143618 | 59 | 280 | 0.9 | 0.9 | 0.00 | 0.00 | 0.00 | 74 | 1014.2 |
| 20260903143114 | 59 | 309 | 0.0 | 0.9 | 0.00 | 0.00 | 0.00 | 75 | 1014.0 |
| 20260903142609 | 59 | 262 | 2.6 | 5.2 | 0.00 | 0.00 | 0.00 | 76 | 1014.3 |
| 20260903142106 | 58 | 305 | 1.7 | 1.7 | 0.00 | 0.00 | 0.00 | 76 | 1014.1 |
| 20260903141601 | 58 | 241 | 2.6 | 3.5 | 0.00 | 0.00 | 0.00 | 76 | 1013.8 |
| 20260903141056 | 58 | 290 | 1.7 | 1.7 | 0.00 | 0.00 | 0.00 | 76 | 1013.9 |
| 20260903140552 | 58 | 269 | 1.7 | 1.7 | 0.00 | 0.00 | 0.00 | 76 | 1013.9 |
| 20260903140047 | 58 | 288 | 1.7 | 1.7 | 0.00 | 0.00 | 0.00 | 75 | 1014.0 |
| 20260903135542 | 58 | 269 | 1.7 | 3.5 | 0.00 | 0.00 | 0.00 | 75 | 1013.7 |
| 20260903135037 | 58 | 288 | 0.9 | 0.9 | 0.00 | 0.00 | 0.00 | 75 | 1014.0 |
| 20260903134536 | 58 | 296 | 2.6 | 3.5 | 0.00 | 0.00 | 0.00 | 75 | 1013.7 |
| 20260903134033 | 58 | 330 | 0.0 | 0.9 | 0.00 | 0.00 | 0.00 | 75 | 1013.7 |
| 20260903133530 | 58 | 287 | 0.0 | 0.9 | 0.00 | 0.00 | 0.00 | 75 | 1013.6 |
| 20260903133025 | 58 | 269 | 0.9 | 0.9 | 0.00 | 0.00 | 0.00 | 75 | 1013.6 |
| 20260903132520 | 58 | 304 | 0.9 | 1.7 | 0.00 | 0.00 | 0.00 | 74 | 1013.7 |
| 20260903132015 | 58 | 244 | 3.5 | 4.3 | 0.00 | 0.00 | 0.00 | 74 | 1013.6 |
| 20260903131510 | 59 | 274 | 1.7 | 1.7 | 0.00 | 0.00 | 0.00 | 74 | 1013.7 |
| 20260903131009 | 59 | 273 | 0.9 | 0.9 | 0.00 | 0.00 | 0.00 | 74 | 1013.7 |
| 20260903130504 | 59 | 233 | 1.7 | 1.7 | 0.00 | 0.00 | 0.00 | 73 | 1013.4 |
| 20260903130003 | 59 | 258 | 1.7 | 1.7 | 0.00 | 0.00 | 0.00 | 73 | 1013.4 |
| 20260903125502 | 59 | 287 | 0.9 | 1.7 | 0.00 | 0.00 | 0.00 | 72 | 1013.5 |
| 20260903124957 | 59 | 252 | 1.7 | 1.7 | 0.00 | 0.00 | 0.00 | 72 | 1013.5 |
| 20260903124451 | 59 | 249 | 2.6 | 4.3 | 0.00 | 0.00 | 0.00 | 70 | 1013.5 |
| 20260903123945 | 60 | 279 | 2.6 | 3.5 | 0.00 | 0.00 | 0.00 | 69 | 1013.5 |
| 20260903123440 | 60 | 246 | 2.6 | 3.5 | 0.00 | 0.00 | 0.00 | 69 | 1013.5 |
| 20260903122939 | 60 | 261 | 1.7 | 3.5 | 0.00 | 0.00 | 0.00 | 69 | 1013.6 |
| 20260903122439 | 60 | 313 | 2.6 | 3.5 | 0.00 | 0.00 | 0.00 | 68 | 1013.7 |
| 20260903121938 | 60 | 269 | 1.7 | 3.5 | 0.00 | 0.00 | 0.00 | 68 | 1013.5 |
| 20260903121433 | 61 | 268 | 0.9 | 0.9 | 0.00 | 0.00 | 0.00 | 68 | 1013.5 |
| 20260903120929 | 61 | 246 | 1.7 | 1.7 | 0.00 | 0.00 | 0.00 | 67 | 1013.5 |
| 20260903120427 | 61 | 248 | 0.9 | 0.9 | 0.00 | 0.00 | 0.00 | 67 | 1013.5 |
| 20260903115926 | 61 | 228 | 1.7 | 1.7 | 0.00 | 0.00 | 0.00 | 67 | 1013.6 |
| 20260903115420 | 61 | 255 | 0.9 | 0.9 | 0.00 | 0.00 | 0.00 | 67 | 1013.6 |
| 20260903114915 | 61 | 254 | 1.7 | 1.7 | 0.00 | 0.00 | 0.00 | 66 | 1013.5 |
| 20260903114411 | 61 | 232 | 0.9 | 1.7 | 0.00 | 0.00 | 0.00 | 66 | 1013.7 |
| 20260903113906 | 61 | 230 | 0.9 | 1.7 | 0.00 | 0.00 | 0.00 | 66 | 1013.6 |
| 20260903113402 | 62 | 243 | 1.7 | 1.7 | 0.00 | 0.00 | 0.00 | 65 | 1013.6 |
| 20260903112857 | 62 | 262 | 2.6 | 3.5 | 0.00 | 0.00 | 0.00 | 65 | 1013.7 |
| 20260903112353 | 62 | 117 | 1.7 | 3.5 | 0.00 | 0.00 | 0.00 | 66 | 1013.6 |
| 20260903111852 | 62 | 267 | 1.7 | 1.7 | 0.00 | 0.00 | 0.00 | 66 | 1013.8 |
| 20260903111351 | 62 | 248 | 2.6 | 3.5 | 0.00 | 0.00 | 0.00 | 66 | 1013.7 |
| 20260903110848 | 62 | 221 | 5.2 | 7.0 | 0.00 | 0.00 | 0.00 | 66 | 1013.8 |
| 20260903110343 | 62 | 264 | 3.5 | 4.3 | 0.00 | 0.00 | 0.00 | 67 | 1013.7 |
| 20260903105838 | 62 | 247 | 2.6 | 3.5 | 0.00 | 0.00 | 0.00 | 67 | 1013.7 |
| 20260903105333 | 62 | 9 | 2.6 | 3.5 | 0.00 | 0.00 | 0.00 | 68 | 1013.5 |
| 20260903104833 | 62 | 275 | 2.6 | 3.5 | 0.00 | 0.00 | 0.00 | 68 | 1013.8 |
| 20260903104327 | 62 | 244 | 2.6 | 3.5 | 0.00 | 0.00 | 0.00 | 69 | 1013.9 |
| 20260903103824 | 62 | 263 | 1.7 | 1.7 | 0.00 | 0.00 | 0.00 | 69 | 1013.7 |
| 20260903103320 | 62 | 253 | 1.7 | 1.7 | 0.00 | 0.00 | 0.00 | 69 | 1013.7 |
| 20260903102815 | 62 | 276 | 4.3 | 5.2 | 0.00 | 0.00 | 0.00 | 69 | 1013.8 |
| 20260903102310 | 62 | 257 | 1.7 | 1.7 | 0.00 | 0.00 | 0.00 | 69 | 1013.8 |
| 20260903101809 | 62 | 260 | 1.7 | 3.5 | 0.00 | 0.00 | 0.00 | 69 | 1013.7 |
| 20260903101304 | 62 | 263 | 0.9 | 1.7 | 0.00 | 0.00 | 0.00 | 68 | 1013.6 |
| 20260903100800 | 63 | 243 | 2.6 | 3.5 | 0.00 | 0.00 | 0.00 | 68 | 1013.9 |
| 20260903100254 | 63 | 195 | 1.7 | 1.7 | 0.00 | 0.00 | 0.00 | 67 | 1013.8 |
| 20260903095751 | 63 | 262 | 2.6 | 4.3 | 0.00 | 0.00 | 0.00 | 67 | 1013.8 |
| 20260903095246 | 63 | 238 | 1.7 | 1.7 | 0.00 | 0.00 | 0.00 | 67 | 1013.6 |
| 20260903094741 | 63 | 258 | 1.7 | 1.7 | 0.00 | 0.00 | 0.00 | 66 | 1013.6 |
| 20260903094236 | 64 | 253 | 3.5 | 4.3 | 0.00 | 0.00 | 0.00 | 65 | 1013.6 |
| 20260903093731 | 64 | 275 | 1.7 | 1.7 | 0.00 | 0.00 | 0.00 | 66 | 1013.9 |
| 20260903093227 | 64 | 119 | 0.9 | 0.9 | 0.00 | 0.00 | 0.00 | 65 | 1013.8 |
| 20260903092726 | 64 | 247 | 0.9 | 3.5 | 0.00 | 0.00 | 0.00 | 65 | 1013.7 |
| 20260903092221 | 64 | 276 | 2.6 | 3.5 | 0.00 | 0.00 | 0.00 | 65 | 1013.9 |
| 20260903091720 | 64 | 275 | 2.6 | 3.5 | 0.00 | 0.00 | 0.00 | 65 | 1013.8 |
| 20260903091215 | 64 | 41 | 1.7 | 1.7 | 0.00 | 0.00 | 0.00 | 64 | 1013.7 |
| 20260903090710 | 64 | 240 | 1.7 | 3.5 | 0.00 | 0.00 | 0.00 | 64 | 1013.7 |
| 20260903090209 | 64 | 266 | 2.6 | 3.5 | 0.00 | 0.00 | 0.00 | 64 | 1013.9 |
| 20260903085708 | 64 | 249 | 1.7 | 1.7 | 0.00 | 0.00 | 0.00 | 64 | 1014.2 |
| 20260903085203 | 64 | 276 | 1.7 | 1.7 | 0.00 | 0.00 | 0.00 | 63 | 1013.9 |
| 20260903084701 | 65 | 285 | 1.7 | 1.7 | 0.00 | 0.00 | 0.00 | 63 | 1014.0 |
| 20260903084155 | 65 | 274 | 0.9 | 1.7 | 0.00 | 0.00 | 0.00 | 63 | 1014.0 |
| 20260903083651 | 65 | 236 | 1.7 | 1.7 | 0.00 | 0.00 | 0.00 | 63 | 1014.0 |
| 20260903083145 | 65 | 237 | 0.9 | 1.7 | 0.00 | 0.00 | 0.00 | 63 | 1013.9 |
| 20260903082639 | 65 | 260 | 1.7 | 3.5 | 0.00 | 0.00 | 0.00 | 63 | 1014.1 |
| 20260903082136 | 65 | 282 | 0.9 | 1.7 | 0.00 | 0.00 | 0.00 | 63 | 1013.8 |
| 20260903081630 | 65 | 262 | 1.7 | 1.7 | 0.00 | 0.00 | 0.00 | 64 | 1014.1 |
| 20260903081126 | 65 | 235 | 2.6 | 4.3 | 0.00 | 0.00 | 0.00 | 64 | 1014.0 |
| 20260903080622 | 65 | 327 | 1.7 | 3.5 | 0.00 | 0.00 | 0.00 | 64 | 1013.9 |
| 20260903080120 | 65 | 240 | 2.6 | 3.5 | 0.00 | 0.00 | 0.00 | 64 | 1014.0 |
| 20260903075619 | 65 | 252 | 1.7 | 1.7 | 0.00 | 0.00 | 0.00 | 64 | 1013.8 |
| 20260903075114 | 65 | 276 | 1.7 | 1.7 | 0.00 | 0.00 | 0.00 | 64 | 1014.1 |
| 20260903074613 | 65 | 247 | 1.7 | 1.7 | 0.00 | 0.00 | 0.00 | 64 | 1013.9 |